When you browse on this site, cookies collect data to enhance your experience and personalize the content and advertising you see.
Visit our Privacy Policy to learn more. By continuing to use the site, you agree to this use of cookies and data.
  • In Schweiz
  • Länderverzeichnis
  • Für 7 Tage
  • Wassertemperatur
  • Satellitenkarten
  • Wetterkarte
  • Widgets
  • user-avatar
    Anmelden

    Stündliche Wetter Verhniy Tabyn

    Heute, 20 November, Dienstag

    Zeit Temperatur Niederschläge Wind Luftdruck Luftfeuchtigkeit
    00:00 0°C° 0.1 mm 1 m/S 756 mmHg 96%
    01:00 0°C° 0.1 mm 1 m/S 756 mmHg 96%
    02:00 -2°C° 0.1 mm 2 m/S 756 mmHg 97%
    03:00 -2°C° 0.1 mm 2 m/S 756 mmHg 97%
    04:00 -2°C° 0 mm 2 m/S 756 mmHg 97%
    05:00 -2°C° 0.1 mm 2 m/S 756 mmHg 96%
    06:00 -2°C° 0.1 mm 2 m/S 756 mmHg 96%
    07:00 -2°C° 0.1 mm 2 m/S 756 mmHg 96%
    08:00 -2°C° 0.1 mm 2 m/S 756 mmHg 95%
    09:00 -2°C° 0.1 mm 2 m/S 756 mmHg 94%
    10:00 -2°C° 0 mm 2 m/S 755 mmHg 93%
    11:00 -2°C° 0.1 mm 2 m/S 755 mmHg 92%
    12:00 -2°C° 0.1 mm 2 m/S 755 mmHg 91%
    13:00 -2°C° 0.1 mm 2 m/S 755 mmHg 90%
    14:00 -2°C° 0 mm 2 m/S 755 mmHg 90%
    15:00 -2°C° 0 mm 2 m/S 754 mmHg 91%
    16:00 -3°C° 0 mm 2 m/S 754 mmHg 91%
    17:00 -3°C° 0 mm 2 m/S 754 mmHg 91%
    18:00 -3°C° 0 mm 2 m/S 754 mmHg 91%
    19:00 -3°C° 0 mm 2 m/S 753 mmHg 90%
    20:00 -3°C° 0 mm 2 m/S 753 mmHg 90%
    21:00 -4°C° 0 mm 2 m/S 752 mmHg 90%
    22:00 -5°C° 0 mm 3 m/S 752 mmHg 90%
    23:00 -5°C° 0 mm 3 m/S 752 mmHg 90%

    Morgen, 21 November, Mittwoch

    Zeit Temperatur Niederschläge Wind Luftdruck Luftfeuchtigkeit
    00:00 -5°C° 0 mm 3 m/S 751 mmHg 89%
    01:00 -5°C° 0 mm 4 m/S 751 mmHg 88%
    02:00 -5°C° 0 mm 4 m/S 750 mmHg 89%
    03:00 -7°C° 0 mm 4 m/S 749 mmHg 89%
    04:00 -7°C° 0 mm 5 m/S 749 mmHg 89%
    05:00 -7°C° 0.2 mm 5 m/S 748 mmHg 89%
    06:00 -6°C° 0.2 mm 6 m/S 747 mmHg 89%
    07:00 -6°C° 0.2 mm 6 m/S 747 mmHg 88%
    08:00 -6°C° 0.4 mm 6 m/S 746 mmHg 88%
    09:00 -6°C° 0.4 mm 6 m/S 745 mmHg 88%
    10:00 -6°C° 0.4 mm 6 m/S 745 mmHg 88%
    11:00 -6°C° 0.2 mm 6 m/S 744 mmHg 87%
    12:00 -5°C° 0.2 mm 6 m/S 743 mmHg 86%
    13:00 -6°C° 0.2 mm 7 m/S 743 mmHg 85%
    14:00 -5°C° 0.1 mm 6 m/S 743 mmHg 86%
    15:00 -5°C° 0.1 mm 6 m/S 742 mmHg 86%
    16:00 -5°C° 0.1 mm 6 m/S 742 mmHg 86%
    17:00 -5°C° 0.1 mm 6 m/S 742 mmHg 86%
    18:00 -6°C° 0.1 mm 6 m/S 742 mmHg 85%
    19:00 -8°C° 0.1 mm 6 m/S 742 mmHg 84%
    20:00 -8°C° 0.1 mm 6 m/S 743 mmHg 83%
    21:00 -8°C° 0.1 mm 6 m/S 743 mmHg 82%
    22:00 -8°C° 0.1 mm 6 m/S 743 mmHg 81%
    23:00 -9°C° 0 mm 6 m/S 743 mmHg 82%

    übermorgen, 22 November, Donnerstag

    Zeit Temperatur Niederschläge Wind Luftdruck Luftfeuchtigkeit
    00:00 -10°C° 0 mm 6 m/S 743 mmHg 82%
    01:00 -11°C° 0 mm 6 m/S 743 mmHg 82%
    02:00 -11°C° 0 mm 6 m/S 743 mmHg 85%
    03:00 -11°C° 0 mm 5 m/S 743 mmHg 87%
    04:00 -11°C° 0 mm 5 m/S 743 mmHg 89%
    05:00 -11°C° 0 mm 5 m/S 743 mmHg 89%
    06:00 -11°C° 0 mm 5 m/S 743 mmHg 89%
    07:00 -10°C° 0 mm 5 m/S 743 mmHg 89%
    08:00 -11°C° 0 mm 5 m/S 743 mmHg 89%
    09:00 -11°C° 0 mm 5 m/S 744 mmHg 89%
    10:00 -10°C° 0 mm 4 m/S 744 mmHg 89%
    11:00 -10°C° 0 mm 4 m/S 744 mmHg 87%
    12:00 -10°C° 0 mm 4 m/S 743 mmHg 85%
    13:00 -9°C° 0 mm 4 m/S 743 mmHg 83%
    14:00 -9°C° 0.1 mm 4 m/S 743 mmHg 85%
    15:00 -9°C° 0.1 mm 4 m/S 742 mmHg 87%
    16:00 -9°C° 0.1 mm 4 m/S 741 mmHg 89%
    17:00 -10°C° 0.5 mm 5 m/S 740 mmHg 90%
    18:00 -9°C° 0.5 mm 6 m/S 739 mmHg 91%
    19:00 -8°C° 0.5 mm 7 m/S 738 mmHg 92%
    20:00 -8°C° 0.4 mm 7 m/S 738 mmHg 91%
    21:00 -8°C° 0.4 mm 7 m/S 737 mmHg 90%
    22:00 -8°C° 0.4 mm 7 m/S 736 mmHg 89%
    23:00 -8°C° 0.1 mm 7 m/S 736 mmHg 90%

    23 November, Freitag

    Zeit Temperatur Niederschläge Wind Luftdruck Luftfeuchtigkeit
    00:00 -8°C° 0.1 mm 6 m/S 735 mmHg 91%
    01:00 -8°C° 0.1 mm 6 m/S 735 mmHg 91%
    02:00 -7°C° 0.3 mm 5 m/S 735 mmHg 92%
    03:00 -7°C° 0.3 mm 4 m/S 734 mmHg 94%
    04:00 -6°C° 0.3 mm 3 m/S 734 mmHg 95%
    05:00 -7°C° 0.5 mm 3 m/S 734 mmHg 95%
    06:00 -7°C° 0.5 mm 3 m/S 734 mmHg 95%
    07:00 -7°C° 0.5 mm 3 m/S 734 mmHg 96%
    08:00 -8°C° 0.3 mm 4 m/S 735 mmHg 94%
    09:00 -10°C° 0.3 mm 6 m/S 736 mmHg 91%
    10:00 -11°C° 0.3 mm 7 m/S 736 mmHg 89%
    11:00 -12°C° 0.1 mm 7 m/S 737 mmHg 87%
    12:00 -12°C° 0.1 mm 8 m/S 738 mmHg 86%
    13:00 -13°C° 0.1 mm 8 m/S 739 mmHg 84%
    14:00 -13°C° 0 mm 8 m/S 740 mmHg 83%
    15:00 -13°C° 0 mm 8 m/S 741 mmHg 83%
    16:00 -13°C° 0 mm 8 m/S 743 mmHg 83%
    17:00 -14°C° 0 mm 7 m/S 744 mmHg 84%
    18:00 -14°C° 0 mm 7 m/S 745 mmHg 85%
    19:00 -15°C° 0 mm 7 m/S 746 mmHg 86%
    20:00 -15°C° 0 mm 6 m/S 746 mmHg 87%
    21:00 -15°C° 0 mm 5 m/S 747 mmHg 89%
    22:00 -15°C° 0 mm 5 m/S 748 mmHg 90%
    23:00 -15°C° 0 mm 4 m/S 748 mmHg 91%

    24 November, Samstag

    Zeit Temperatur Niederschläge Wind Luftdruck Luftfeuchtigkeit
    00:00 -16°C° 0 mm 4 m/S 749 mmHg 92%
    01:00 -16°C° 0 mm 4 m/S 750 mmHg 93%
    02:00 -16°C° 0 mm 4 m/S 750 mmHg 94%
    03:00 -16°C° 0 mm 4 m/S 750 mmHg 94%
    04:00 -16°C° 0 mm 4 m/S 750 mmHg 95%
    05:00 -16°C° 0 mm 4 m/S 750 mmHg 95%
    06:00 -15°C° 0 mm 5 m/S 750 mmHg 95%
    07:00 -15°C° 0 mm 5 m/S 750 mmHg 95%
    08:00 -14°C° 0 mm 5 m/S 750 mmHg 94%
    09:00 -12°C° 0 mm 6 m/S 750 mmHg 92%
    10:00 -11°C° 0 mm 6 m/S 750 mmHg 91%
    11:00 -12°C° 0 mm 7 m/S 750 mmHg 90%
    12:00 -12°C° 0 mm 7 m/S 750 mmHg 89%
    13:00 -11°C° 0 mm 8 m/S 749 mmHg 88%
    14:00 -11°C° 0 mm 8 m/S 749 mmHg 88%
    15:00 -11°C° 0 mm 8 m/S 749 mmHg 87%
    16:00 -11°C° 0 mm 8 m/S 749 mmHg 86%
    17:00 -11°C° 0 mm 8 m/S 749 mmHg 86%
    18:00 -11°C° 0 mm 8 m/S 749 mmHg 86%
    19:00 -10°C° 0 mm 8 m/S 748 mmHg 86%
    20:00 -10°C° 0.1 mm 8 m/S 748 mmHg 86%
    21:00 -8°C° 0.1 mm 8 m/S 748 mmHg 86%
    22:00 -8°C° 0.1 mm 8 m/S 748 mmHg 87%
    23:00 -8°C° 0 mm 8 m/S 747 mmHg 87%

    25 November, Sonntag

    Zeit Temperatur Niederschläge Wind Luftdruck Luftfeuchtigkeit
    00:00 -8°C° 0 mm 8 m/S 747 mmHg 87%
    01:00 -8°C° 0 mm 8 m/S 747 mmHg 86%
    02:00 -7°C° 0.1 mm 8 m/S 747 mmHg 86%
    03:00 -7°C° 0.1 mm 8 m/S 747 mmHg 86%
    04:00 -7°C° 0.1 mm 8 m/S 746 mmHg 86%
    05:00 -7°C° 0.1 mm 8 m/S 746 mmHg 86%
    06:00 -7°C° 0.1 mm 8 m/S 746 mmHg 86%
    07:00 -7°C° 0.1 mm 8 m/S 746 mmHg 86%
    08:00 -7°C° 0.1 mm 8 m/S 747 mmHg 87%
    09:00 -7°C° 0.1 mm 8 m/S 747 mmHg 87%
    10:00 -7°C° 0.1 mm 7 m/S 748 mmHg 88%
    11:00 -7°C° 0 mm 7 m/S 748 mmHg 87%
    12:00 -7°C° 0 mm 7 m/S 748 mmHg 87%
    13:00 -6°C° 0 mm 6 m/S 749 mmHg 86%
    14:00 -6°C° 0 mm 6 m/S 749 mmHg 87%
    15:00 -6°C° 0 mm 5 m/S 749 mmHg 88%
    16:00 -7°C° 0 mm 4 m/S 750 mmHg 89%
    17:00 -7°C° 0 mm 4 m/S 750 mmHg 89%
    18:00 -7°C° 0 mm 4 m/S 751 mmHg 90%
    19:00 -7°C° 0 mm 4 m/S 751 mmHg 90%
    20:00 -6°C° 0 mm 3 m/S 751 mmHg 91%
    21:00 -6°C° 0 mm 3 m/S 751 mmHg 91%
    22:00 -6°C° 0 mm 3 m/S 751 mmHg 91%
    23:00 -7°C° 0 mm 3 m/S 752 mmHg 92%
    Mehr zeigen